TimeEDT,TemperatureF,Dew PointF,Humidity,Sea Level PressureIn,VisibilityMPH,Wind Direction,Wind SpeedMPH,Gust SpeedMPH,PrecipitationIn,Events,Conditions,WindDirDegrees,DateUTC
12:25 AM,25.3,20.5,82,29.53,-9999.0,Variable,3.5,16.1,N/A,,Unknown,0,2013-04-02 04:25:00
1:25 AM,24.4,19.2,81,29.55,-9999.0,Variable,6.9,21.9,N/A,,Unknown,0,2013-04-02 05:25:00
2:25 AM,22.3,13.6,69,29.57,-9999.0,SW,9.2,20.7,N/A,,Unknown,230,2013-04-02 06:25:00
3:25 AM,19.2,9.9,67,29.59,-9999.0,Variable,5.8,18.4,N/A,,Unknown,0,2013-04-02 07:25:00
4:25 AM,17.4,5.4,59,29.61,-9999.0,WSW,6.9,23.0,0.00,,Unknown,240,2013-04-02 08:25:00
5:25 AM,16.0,5.4,63,29.62,-9999.0,Variable,5.8,16.1,N/A,,Unknown,0,2013-04-02 09:25:00
6:25 AM,15.3,6.8,69,29.63,-9999.0,Variable,5.8,17.3,N/A,,Unknown,0,2013-04-02 10:25:00
7:25 AM,16.3,4.6,60,29.65,-9999.0,Variable,6.9,19.6,N/A,,Unknown,0,2013-04-02 11:25:00
8:25 AM,18.0,3.9,54,29.65,-9999.0,SW,8.1,20.7,N/A,,Unknown,220,2013-04-02 12:25:00
9:25 AM,18.5,5.2,56,29.65,-9999.0,SW,10.4,21.9,N/A,,Unknown,230,2013-04-02 13:25:00
10:25 AM,18.9,8.8,65,29.64,-9999.0,SW,9.2,21.9,N/A,,Unknown,220,2013-04-02 14:25:00
11:25 AM,20.8,8.1,58,29.65,-9999.0,SW,10.4,26.5,N/A,,Unknown,220,2013-04-02 15:25:00
12:27 PM,21.9,6.8,52,29.65,-9999.0,WSW,10.4,26.5,N/A,,Unknown,240,2013-04-02 16:27:00
1:28 PM,22.1,6.1,50,29.64,-9999.0,SW,8.1,26.5,N/A,,Unknown,230,2013-04-02 17:28:00
2:25 PM,21.2,7.5,56,29.64,-9999.0,WSW,10.4,24.2,N/A,,Unknown,240,2013-04-02 18:25:00
3:25 PM,21.4,10.9,64,29.63,-9999.0,SW,10.4,24.2,N/A,,Unknown,230,2013-04-02 19:25:00
4:25 PM,21.2,8.2,57,29.63,-9999.0,SW,8.1,17.3,N/A,,Unknown,230,2013-04-02 20:25:00
5:25 PM,19.4,12.9,76,29.65,-9999.0,SW,9.2,21.9,0.00,,Unknown,230,2013-04-02 21:25:00
6:25 PM,18.7,13.8,81,29.66,-9999.0,Variable,5.8,17.3,N/A,,Unknown,0,2013-04-02 22:25:00
7:25 PM,17.2,13.5,85,29.66,-9999.0,Variable,5.8,15.0,0.02,,Unknown,0,2013-04-02 23:25:00
8:25 PM,16.5,11.5,81,29.68,-9999.0,WSW,8.1,20.7,N/A,,Unknown,240,2013-04-03 00:25:00
9:25 PM,15.4,9.3,77,29.70,-9999.0,Variable,6.9,16.1,0.01,,Unknown,0,2013-04-03 01:25:00
10:28 PM,14.4,5.9,69,29.69,-9999.0,Variable,6.9,12.7,N/A,,Unknown,0,2013-04-03 02:28:00
11:25 PM,14.0,3.4,63,29.69,-9999.0,WSW,8.1,18.4,0.00,,Unknown,240,2013-04-03 03:25:00